Time,TemperatureF,DewpointF,PressureIn,WindDirection,WindDirectionDegrees,WindSpeedMPH,WindSpeedGustMPH,Humidity,HourlyPrecipIn,Conditions,Clouds,dailyrainin,SoftwareType,DateUTC
2013-03-28 00:05:00,158.0,0.0,30.28,WSW,250,11.0,12.0,0,0.00,,---,0.00,VWS V14.00,2013-03-28 05:05:00,
2013-03-28 00:15:00,158.0,0.0,30.28,WSW,254,11.0,13.0,0,0.00,,---,0.00,VWS V14.00,2013-03-28 05:15:00,
2013-03-28 00:25:00,158.0,0.0,30.28,West,266,10.0,12.0,0,0.00,,---,0.00,VWS V14.00,2013-03-28 05:25:00,
2013-03-28 00:35:00,158.0,0.0,30.28,West,263,10.0,12.0,0,0.00,,---,0.00,VWS V14.00,2013-03-28 05:35:00,
2013-03-28 00:45:00,158.0,0.0,30.29,West,261,10.0,12.0,0,0.00,,---,0.00,VWS V14.00,2013-03-28 05:45:00,
2013-03-28 00:55:00,158.0,0.0,30.28,WSW,257,10.0,11.0,0,0.00,,---,0.00,VWS V14.00,2013-03-28 05:55:00,
2013-03-28 01:05:00,158.0,0.0,30.28,WSW,251,9.0,11.0,0,0.00,,---,0.00,VWS V14.00,2013-03-28 06:05:00,
2013-03-28 01:15:00,158.0,0.0,30.28,WSW,252,9.0,11.0,0,0.00,,---,0.00,VWS V14.00,2013-03-28 06:15:00,
2013-03-28 01:25:00,158.0,0.0,30.28,West,263,10.0,11.0,0,0.00,,---,0.00,VWS V14.00,2013-03-28 06:25:00,
2013-03-28 01:35:00,158.0,0.0,30.28,West,270,7.0,11.0,0,0.00,,---,0.00,VWS V14.00,2013-03-28 06:35:00,
2013-03-28 01:45:00,158.0,0.0,30.28,WSW,258,10.0,11.0,0,0.00,,---,0.00,VWS V14.00,2013-03-28 06:45:00,
2013-03-28 01:55:00,158.0,0.0,30.28,WNW,284,8.0,10.0,0,0.00,,---,0.00,VWS V14.00,2013-03-28 06:55:00,
2013-03-28 02:05:00,158.0,0.0,30.28,West,280,7.0,10.0,0,0.00,,---,0.00,VWS V14.00,2013-03-28 07:05:00,
2013-03-28 02:15:00,158.0,0.0,30.27,WNW,292,5.0,10.0,0,0.00,,---,0.00,VWS V14.00,2013-03-28 07:15:00,
2013-03-28 02:25:00,158.0,0.0,30.27,WNW,296,7.0,8.0,0,0.00,,---,0.00,VWS V14.00,2013-03-28 07:25:00,
2013-03-28 02:35:00,158.0,0.0,30.27,WNW,295,5.0,9.0,0,0.00,,---,0.00,VWS V14.00,2013-03-28 07:35:00,
2013-03-28 02:45:00,158.0,0.0,30.27,WNW,302,6.0,8.0,0,0.00,,---,0.00,VWS V14.00,2013-03-28 07:45:00,
2013-03-28 02:55:00,158.0,0.0,30.26,NW,312,7.0,8.0,0,0.00,,---,0.00,VWS V14.00,2013-03-28 07:55:00,
2013-03-28 03:05:00,158.0,0.0,30.26,NW,309,7.0,9.0,0,0.00,,---,0.00,VWS V14.00,2013-03-28 08:05:00,
2013-03-28 03:15:00,158.0,0.0,30.26,NW,325,6.0,10.0,0,0.00,,---,0.00,VWS V14.00,2013-03-28 08:15:00,
2013-03-28 03:25:00,158.0,0.0,30.26,NNW,334,6.0,7.0,0,0.00,,---,0.00,VWS V14.00,2013-03-28 08:25:00,
2013-03-28 03:35:00,158.0,0.0,30.26,NNW,334,3.0,6.0,0,0.00,,---,0.00,VWS V14.00,2013-03-28 08:35:00,
2013-03-28 03:45:00,158.0,0.0,30.26,NE,49,3.0,5.0,0,0.00,,---,0.00,VWS V14.00,2013-03-28 08:45:00,
2013-03-28 03:55:00,158.0,0.0,30.26,ENE,69,5.0,6.0,0,0.00,,---,0.00,VWS V14.00,2013-03-28 08:55:00,
2013-03-28 04:15:00,158.0,0.0,30.27,North,11,4.0,5.0,0,0.00,,---,0.00,VWS V14.00,2013-03-28 09:15:00,
2013-03-28 04:25:00,158.0,0.0,30.27,North,10,3.0,4.0,0,0.00,,---,0.00,VWS V14.00,2013-03-28 09:25:00,
2013-03-28 04:35:00,158.0,0.0,30.27,NNE,12,0.0,4.0,0,0.00,,---,0.00,VWS V14.00,2013-03-28 09:35:00,
2013-03-28 04:45:00,158.0,0.0,30.28,NNW,344,4.0,5.0,0,0.00,,---,0.00,VWS V14.00,2013-03-28 09:45:00,
2013-03-28 04:55:00,158.0,0.0,30.28,NNW,331,4.0,6.0,0,0.00,,---,0.00,VWS V14.00,2013-03-28 09:55:00,
2013-03-28 05:05:00,158.0,0.0,30.28,NNW,345,6.0,7.0,0,0.00,,---,0.00,VWS V14.00,2013-03-28 10:05:00,
2013-03-28 05:15:00,158.0,0.0,30.28,NNW,338,6.0,7.0,0,0.00,,---,0.00,VWS V14.00,2013-03-28 10:15:00,
2013-03-28 05:25:00,158.0,0.0,30.28,NNW,347,6.0,9.0,0,0.00,,---,0.00,VWS V14.00,2013-03-28 10:25:00,
2013-03-28 05:35:00,158.0,0.0,30.28,NNW,333,6.0,10.0,0,0.00,,---,0.00,VWS V14.00,2013-03-28 10:35:00,
2013-03-28 05:45:00,158.0,0.0,30.28,NNW,333,5.0,8.0,0,0.00,,---,0.00,VWS V14.00,2013-03-28 10:45:00,
2013-03-28 05:55:00,158.0,0.0,30.28,NW,319,7.0,10.0,0,0.00,,---,0.00,VWS V14.00,2013-03-28 10:55:00,
2013-03-28 06:05:00,158.0,0.0,30.29,NNW,340,7.0,10.0,0,0.00,,---,0.00,VWS V14.00,2013-03-28 11:05:00,
2013-03-28 06:15:00,158.0,0.0,30.29,NNW,337,8.0,10.0,0,0.00,,---,0.00,VWS V14.00,2013-03-28 11:15:00,
2013-03-28 06:35:00,158.0,0.0,30.29,NW,321,8.0,10.0,0,0.00,,---,0.00,VWS V14.00,2013-03-28 11:35:00,
2013-03-28 06:45:00,158.0,0.0,30.30,NNW,336,9.0,11.0,0,0.00,,---,0.00,VWS V14.00,2013-03-28 11:45:00,
2013-03-28 06:55:00,158.0,0.0,30.30,NNW,331,10.0,11.0,0,0.00,,---,0.00,VWS V14.00,2013-03-28 11:55:00,
2013-03-28 07:05:00,158.0,0.0,30.30,NNW,327,8.0,11.0,0,0.00,,---,0.00,VWS V14.00,2013-03-28 12:05:00,
2013-03-28 07:15:00,158.0,0.0,30.30,NNW,343,10.0,11.0,0,0.00,,---,0.00,VWS V14.00,2013-03-28 12:15:00,
2013-03-28 07:25:00,158.0,0.0,30.30,NNW,343,7.0,11.0,0,0.00,,---,0.00,VWS V14.00,2013-03-28 12:25:00,
2013-03-28 07:35:00,158.0,0.0,30.31,North,355,9.0,11.0,0,0.00,,---,0.00,VWS V14.00,2013-03-28 12:35:00,
2013-03-28 07:45:00,158.0,0.0,30.31,NNW,342,8.0,11.0,0,0.00,,---,0.00,VWS V14.00,2013-03-28 12:45:00,
2013-03-28 07:55:00,158.0,0.0,30.31,NNW,346,11.0,12.0,0,0.00,,---,0.00,VWS V14.00,2013-03-28 12:55:00,
2013-03-28 08:05:00,158.0,0.0,30.31,NNW,347,11.0,12.0,0,0.00,,---,0.00,VWS V14.00,2013-03-28 13:05:00,
2013-03-28 08:15:00,158.0,0.0,30.31,NNW,337,10.0,13.0,0,0.00,,---,0.00,VWS V14.00,2013-03-28 13:15:00,
2013-03-28 08:25:00,158.0,0.0,30.31,NNW,331,11.0,14.0,0,0.00,,---,0.00,VWS V14.00,2013-03-28 13:25:00,
2013-03-28 08:35:00,158.0,0.0,30.31,NNW,343,11.0,14.0,0,0.00,,---,0.00,VWS V14.00,2013-03-28 13:35:00,
2013-03-28 08:45:00,158.0,0.0,30.31,NNW,336,12.0,14.0,0,0.00,,---,0.00,VWS V14.00,2013-03-28 13:45:00,
2013-03-28 08:55:00,158.0,0.0,30.32,NNW,331,9.0,12.0,0,0.00,,---,0.00,VWS V14.00,2013-03-28 13:55:00,
2013-03-28 09:05:00,158.0,0.0,30.32,North,349,8.0,12.0,0,0.00,,---,0.00,VWS V14.00,2013-03-28 14:05:00,
2013-03-28 09:15:00,158.0,0.0,30.32,NNW,343,8.0,11.0,0,0.00,,---,0.00,VWS V14.00,2013-03-28 14:15:00,
2013-03-28 09:25:00,158.0,0.0,30.32,NNW,336,6.0,10.0,0,0.00,,---,0.00,VWS V14.00,2013-03-28 14:25:00,
2013-03-28 09:35:00,158.0,0.0,30.32,NNW,337,4.0,8.0,0,0.00,,---,0.00,VWS V14.00,2013-03-28 14:35:00,
2013-03-28 09:45:00,158.0,0.0,30.32,NNW,328,6.0,7.0,0,0.00,,---,0.00,VWS V14.00,2013-03-28 14:45:00,
2013-03-28 09:55:00,158.0,0.0,30.32,NNW,329,6.0,8.0,0,0.00,,---,0.00,VWS V14.00,2013-03-28 14:55:00,
2013-03-28 10:05:00,158.0,0.0,30.32,NW,321,4.0,7.0,0,0.00,,---,0.00,VWS V14.00,2013-03-28 15:05:00,
2013-03-28 10:15:00,158.0,0.0,30.32,NW,315,5.0,7.0,0,0.00,,---,0.00,VWS V14.00,2013-03-28 15:15:00,
2013-03-28 10:25:00,158.0,0.0,30.32,WNW,298,7.0,9.0,0,0.00,,---,0.00,VWS V14.00,2013-03-28 15:25:00,
2013-03-28 10:35:00,158.0,0.0,30.32,WNW,294,7.0,8.0,0,0.00,,---,0.00,VWS V14.00,2013-03-28 15:35:00,
2013-03-28 10:45:00,158.0,0.0,30.33,WNW,295,7.0,9.0,0,0.00,,---,0.00,VWS V14.00,2013-03-28 15:45:00,
2013-03-28 10:55:00,158.0,0.0,30.32,WNW,290,7.0,9.0,0,0.00,,---,0.00,VWS V14.00,2013-03-28 15:55:00,
2013-03-28 11:05:00,158.0,0.0,30.32,WNW,284,8.0,9.0,0,0.00,,---,0.00,VWS V14.00,2013-03-28 16:05:00,
2013-03-28 11:15:00,158.0,0.0,30.32,WNW,285,7.0,9.0,0,0.00,,---,0.00,VWS V14.00,2013-03-28 16:15:00,
2013-03-28 11:25:00,158.0,0.0,30.32,West,278,7.0,10.0,0,0.00,,---,0.00,VWS V14.00,2013-03-28 16:25:00,
2013-03-28 11:35:00,158.0,0.0,30.32,West,281,10.0,10.0,0,0.00,,---,0.00,VWS V14.00,2013-03-28 16:35:00,
2013-03-28 11:45:00,158.0,0.0,30.32,WNW,282,11.0,11.0,0,0.00,,---,0.00,VWS V14.00,2013-03-28 16:45:00,
2013-03-28 11:55:00,158.0,0.0,30.32,West,273,9.0,11.0,0,0.00,,---,0.00,VWS V14.00,2013-03-28 16:55:00,
2013-03-28 12:05:00,158.0,0.0,30.32,West,271,7.0,10.0,0,0.00,,---,0.00,VWS V14.00,2013-03-28 17:05:00,
2013-03-28 12:15:00,158.0,0.0,30.31,West,271,10.0,10.0,0,0.00,,---,0.00,VWS V14.00,2013-03-28 17:15:00,
2013-03-28 12:25:00,158.0,0.0,30.31,West,272,9.0,10.0,0,0.00,,---,0.00,VWS V14.00,2013-03-28 17:25:00,
2013-03-28 12:35:00,158.0,0.0,30.30,West,269,7.0,10.0,0,0.00,,---,0.00,VWS V14.00,2013-03-28 17:35:00,
2013-03-28 12:45:00,158.0,0.0,30.30,West,274,9.0,10.0,0,0.00,,---,0.00,VWS V14.00,2013-03-28 17:45:00,
2013-03-28 12:55:00,158.0,0.0,30.30,West,275,9.0,10.0,0,0.00,,---,0.00,VWS V14.00,2013-03-28 17:55:00,
2013-03-28 13:05:00,158.0,0.0,30.30,West,271,7.0,10.0,0,0.00,,---,0.00,VWS V14.00,2013-03-28 18:05:00,
2013-03-28 13:15:00,158.0,0.0,30.29,West,268,9.0,10.0,0,0.00,,---,0.00,VWS V14.00,2013-03-28 18:15:00,
2013-03-28 13:25:00,158.0,0.0,30.29,WSW,257,10.0,11.0,0,0.00,,---,0.00,VWS V14.00,2013-03-28 18:25:00,
2013-03-28 13:35:00,158.0,0.0,30.29,WSW,244,9.0,11.0,0,0.00,,---,0.00,VWS V14.00,2013-03-28 18:35:00,
2013-03-28 13:45:00,158.0,0.0,30.28,WSW,237,7.0,10.0,0,0.00,,---,0.00,VWS V14.00,2013-03-28 18:45:00,
2013-03-28 13:55:00,158.0,0.0,30.28,SW,221,5.0,9.0,0,0.00,,---,0.00,VWS V14.00,2013-03-28 18:55:00,
2013-03-28 14:05:00,158.0,0.0,30.27,SW,215,7.0,9.0,0,0.00,,---,0.00,VWS V14.00,2013-03-28 19:05:00,
2013-03-28 14:15:00,158.0,0.0,30.26,SSW,202,7.0,10.0,0,0.00,,---,0.00,VWS V14.00,2013-03-28 19:15:00,
2013-03-28 14:25:00,158.0,0.0,30.26,SSW,196,10.0,11.0,0,0.00,,---,0.00,VWS V14.00,2013-03-28 19:25:00,
2013-03-28 14:35:00,158.0,0.0,30.26,South,186,10.0,11.0,0,0.00,,---,0.00,VWS V14.00,2013-03-28 19:35:00,
2013-03-28 14:45:00,158.0,0.0,30.25,South,173,10.0,11.0,0,0.00,,---,0.00,VWS V14.00,2013-03-28 19:45:00,
2013-03-28 14:55:00,158.0,0.0,30.25,South,173,10.0,11.0,0,0.00,,---,0.00,VWS V14.00,2013-03-28 19:55:00,
2013-03-28 15:05:00,158.0,0.0,30.25,South,171,11.0,12.0,0,0.00,,---,0.00,VWS V14.00,2013-03-28 20:05:00,
2013-03-28 15:15:00,158.0,0.0,30.24,SSE,167,10.0,13.0,0,0.00,,---,0.00,VWS V14.00,2013-03-28 20:15:00,
2013-03-28 15:25:00,158.0,0.0,30.23,South,172,13.0,14.0,0,0.00,,---,0.00,VWS V14.00,2013-03-28 20:25:00,
2013-03-28 15:35:00,158.0,0.0,30.23,SSE,165,13.0,15.0,0,0.00,,---,0.00,VWS V14.00,2013-03-28 20:35:00,
2013-03-28 15:45:00,158.0,0.0,30.22,South,173,13.0,15.0,0,0.00,,---,0.00,VWS V14.00,2013-03-28 20:45:00,
2013-03-28 15:55:00,158.0,0.0,30.22,South,174,15.0,19.0,0,0.00,,---,0.00,VWS V14.00,2013-03-28 20:55:00,
2013-03-28 16:05:00,158.0,0.0,30.22,South,179,16.0,20.0,0,0.00,,---,0.00,VWS V14.00,2013-03-28 21:05:00,
2013-03-28 16:15:00,158.0,0.0,30.22,South,180,16.0,19.0,0,0.00,,---,0.00,VWS V14.00,2013-03-28 21:15:00,
2013-03-28 16:25:00,158.0,0.0,30.22,South,169,16.0,19.0,0,0.00,,---,0.00,VWS V14.00,2013-03-28 21:25:00,
2013-03-28 16:35:00,158.0,0.0,30.21,South,178,15.0,20.0,0,0.00,,---,0.00,VWS V14.00,2013-03-28 21:35:00,
2013-03-28 16:45:00,158.0,0.0,30.21,South,170,17.0,20.0,0,0.00,,---,0.00,VWS V14.00,2013-03-28 21:45:00,
2013-03-28 16:55:00,158.0,0.0,30.22,South,178,15.0,19.0,0,0.00,,---,0.00,VWS V14.00,2013-03-28 21:55:00,
2013-03-28 17:05:00,158.0,0.0,30.21,South,175,17.0,20.0,0,0.00,,---,0.00,VWS V14.00,2013-03-28 22:05:00,
2013-03-28 17:15:00,158.0,0.0,30.22,South,179,15.0,18.0,0,0.00,,---,0.00,VWS V14.00,2013-03-28 22:15:00,
2013-03-28 17:25:00,158.0,0.0,30.22,South,181,18.0,18.0,0,0.00,,---,0.00,VWS V14.00,2013-03-28 22:25:00,
2013-03-28 17:35:00,158.0,0.0,30.22,South,176,14.0,18.0,0,0.00,,---,0.00,VWS V14.00,2013-03-28 22:35:00,
2013-03-28 17:45:00,158.0,0.0,30.22,South,175,17.0,20.0,0,0.00,,---,0.00,VWS V14.00,2013-03-28 22:45:00,
2013-03-28 17:55:00,158.0,0.0,30.21,SSE,168,15.0,18.0,0,0.00,,---,0.00,VWS V14.00,2013-03-28 22:55:00,
2013-03-28 18:05:00,158.0,0.0,30.22,South,178,13.0,17.0,0,0.00,,---,0.00,VWS V14.00,2013-03-28 23:05:00,
2013-03-28 18:15:00,158.0,0.0,30.22,South,174,14.0,17.0,0,0.00,,---,0.00,VWS V14.00,2013-03-28 23:15:00,
2013-03-28 18:25:00,158.0,0.0,30.22,South,177,12.0,16.0,0,0.00,,---,0.00,VWS V14.00,2013-03-28 23:25:00,
2013-03-28 18:35:00,158.0,0.0,30.23,South,189,17.0,17.0,0,0.00,,---,0.00,VWS V14.00,2013-03-28 23:35:00,
2013-03-28 18:45:00,158.0,0.0,30.23,SSW,193,17.0,19.0,0,0.00,,---,0.00,VWS V14.00,2013-03-28 23:45:00,
2013-03-28 18:55:00,158.0,0.0,30.24,South,188,14.0,18.0,0,0.00,,---,0.00,VWS V14.00,2013-03-28 23:55:00,
2013-03-28 19:05:00,158.0,0.0,30.24,SSW,200,18.0,19.0,0,0.00,,---,0.00,VWS V14.00,2013-03-29 00:05:00,
2013-03-28 19:15:00,158.0,0.0,30.24,South,188,17.0,19.0,0,0.00,,---,0.00,VWS V14.00,2013-03-29 00:15:00,
2013-03-28 19:25:00,158.0,0.0,30.24,South,186,14.0,17.0,0,0.00,,---,0.00,VWS V14.00,2013-03-29 00:25:00,
2013-03-28 19:35:00,158.0,0.0,30.24,SSW,192,14.0,16.0,0,0.00,,---,0.00,VWS V14.00,2013-03-29 00:35:00,
2013-03-28 19:45:00,158.0,0.0,30.25,SSW,194,12.0,14.0,0,0.00,,---,0.00,VWS V14.00,2013-03-29 00:45:00,
2013-03-28 19:55:00,158.0,0.0,30.25,SSW,194,12.0,14.0,0,0.00,,---,0.00,VWS V14.00,2013-03-29 00:55:00,
2013-03-28 20:05:00,158.0,0.0,30.24,SSW,198,13.0,14.0,0,0.00,,---,0.00,VWS V14.00,2013-03-29 01:05:00,
2013-03-28 20:15:00,158.0,0.0,30.24,South,188,10.0,13.0,0,0.00,,---,0.00,VWS V14.00,2013-03-29 01:15:00,
2013-03-28 20:25:00,158.0,0.0,30.25,SSW,196,9.0,12.0,0,0.00,,---,0.00,VWS V14.00,2013-03-29 01:25:00,
2013-03-28 20:35:00,158.0,0.0,30.25,South,190,7.0,11.0,0,0.00,,---,0.00,VWS V14.00,2013-03-29 01:35:00,
2013-03-28 20:45:00,158.0,0.0,30.25,SSW,202,10.0,10.0,0,0.00,,---,0.00,VWS V14.00,2013-03-29 01:45:00,
2013-03-28 20:55:00,158.0,0.0,30.25,SSW,196,10.0,11.0,0,0.00,,---,0.00,VWS V14.00,2013-03-29 01:55:00,
2013-03-28 21:05:00,158.0,0.0,30.25,SSW,200,6.0,12.0,0,0.00,,---,0.00,VWS V14.00,2013-03-29 02:05:00,
2013-03-28 21:15:00,158.0,0.0,30.26,SSW,202,5.0,10.0,0,0.00,,---,0.00,VWS V14.00,2013-03-29 02:15:00,
2013-03-28 21:25:00,158.0,0.0,30.26,SSW,207,6.0,7.0,0,0.00,,---,0.00,VWS V14.00,2013-03-29 02:25:00,
2013-03-28 21:35:00,158.0,0.0,30.26,SSW,211,3.0,7.0,0,0.00,,---,0.00,VWS V14.00,2013-03-29 02:35:00,
2013-03-28 21:45:00,158.0,0.0,30.26,SW,217,5.0,6.0,0,0.00,,---,0.00,VWS V14.00,2013-03-29 02:45:00,
2013-03-28 21:55:00,158.0,0.0,30.27,SW,225,5.0,6.0,0,0.00,,---,0.00,VWS V14.00,2013-03-29 02:55:00,
2013-03-28 22:05:00,158.0,0.0,30.27,SW,226,5.0,7.0,0,0.00,,---,0.00,VWS V14.00,2013-03-29 03:05:00,
2013-03-28 22:15:00,158.0,0.0,30.27,SW,227,5.0,7.0,0,0.00,,---,0.00,VWS V14.00,2013-03-29 03:15:00,
2013-03-28 22:25:00,158.0,0.0,30.27,SW,228,5.0,6.0,0,0.00,,---,0.00,VWS V14.00,2013-03-29 03:25:00,
2013-03-28 22:35:00,158.0,0.0,30.27,SW,229,5.0,6.0,0,0.00,,---,0.00,VWS V14.00,2013-03-29 03:35:00,
2013-03-28 22:45:00,158.0,0.0,30.27,SW,229,5.0,7.0,0,0.00,,---,0.00,VWS V14.00,2013-03-29 03:45:00,
2013-03-28 22:55:00,158.0,0.0,30.27,SW,229,5.0,8.0,0,0.00,,---,0.00,VWS V14.00,2013-03-29 03:55:00,
2013-03-28 23:05:00,158.0,0.0,30.27,SW,232,6.0,6.0,0,0.00,,---,0.00,VWS V14.00,2013-03-29 04:05:00,
2013-03-28 23:15:00,158.0,0.0,30.27,SW,232,4.0,6.0,0,0.00,,---,0.00,VWS V14.00,2013-03-29 04:15:00,
2013-03-28 23:25:00,158.0,0.0,30.27,SW,232,4.0,7.0,0,0.00,,---,0.00,VWS V14.00,2013-03-29 04:25:00,
2013-03-28 23:35:00,158.0,0.0,30.27,WSW,242,5.0,7.0,0,0.00,,---,0.00,VWS V14.00,2013-03-29 04:35:00,
2013-03-28 23:45:00,158.0,0.0,30.27,WSW,249,5.0,7.0,0,0.00,,---,0.00,VWS V14.00,2013-03-29 04:45:00,
2013-03-28 23:55:00,158.0,0.0,30.27,West,260,6.0,7.0,0,0.00,,---,0.00,VWS V14.00,2013-03-29 04:55:00,